Simultaneous Nadir Overpasses (SNOs) Predictions

Prediction of SNOs between METOP-B and TERRA Satellite Orbit:

Table of predicted SNOs for the next 14.0 days since TLE Epoch: 6/8/2013
Index Date (METOP-B) Time (METOP-B) Lat,Lon (METOP-B) SZA (METOP-B ) Date (TERRA) Time (TERRA) Lat,Lon (TERRA) SZA (TERRA ) Distance(km) Time Diff (sec)
1 06/08/2013 11:42:40 81.29, 50.80 61.28 06/08/2013 11:43:50 81.29, 50.97 61.33 2.79 70
2 06/08/2013 12:33:18 -81.30,-141.09 118.63 06/08/2013 12:33:16 -81.30,-141.13 118.63 0.67 2
3 06/11/2013 07:17:02 81.29, 117.53 61.09 06/11/2013 07:18:05 81.30, 117.71 61.15 3.20 63
4 06/11/2013 08:07:41 -81.30, -74.74 118.87 06/11/2013 08:07:32 -81.30, -74.74 118.87 0.11 9
5 06/14/2013 02:51:25 81.29,-176.17 60.90 06/14/2013 02:52:21 81.29,-176.04 60.94 2.21 56
6 06/14/2013 03:42:04 -81.30, -8.43 119.06 06/14/2013 03:41:48 -81.29, -8.46 119.08 0.99 16
7 06/16/2013 22:25:47 81.29,-109.52 60.80 06/16/2013 22:26:36 81.30,-109.52 60.83 0.26 49
8 06/16/2013 23:16:25 -81.30, 58.25 119.15 06/16/2013 23:16:02 -81.30, 58.09 119.18 2.66 23
9 06/19/2013 18:00:09 81.29, -43.30 60.70 06/19/2013 18:00:50 81.30, -43.11 60.75 3.22 41




NCC Satellite Simultaneous Nadir Overpasses (SNOs) Prediction Service
